Regional Weather Roundup
Issued by NWS Sterling, VA

Home | Current Version | Previous Version | Graphics & Text | Print | Product List | Glossary On
Versions: 1 2 3 4 5 6 7 8 9 10 11 12 13 14 15 16 17 18 19 20 21 22 23 24 25 26 27 28 29 30 31 32 33 34 35 36 37 38 39 40 41 42 43 44 45 46 47 48 49 50
000
ASUS41 KLWX 261510
RWRLWX

REGIONAL WEATHER ROUNDUP
NATIONAL WEATHER SERVICE BALTIMORE MD/WASHINGTON DC
1100 AM EDT THU MAR 26 2015

Note: "FAIR" indicates few or no clouds below 12,000 feet
with no significant weather and/or obstructions to visibility.
 TC=TEMPERATURE CELSIUS

 * =Non NWS site. Station does not report precipitation (e.g. rain,
    snow, etc.), thunder, or fog.

DCZ001-MDZ009-015-VAZ040>042-051-053>054-261600-
WASHINGTON METRO

CITY           SKY/WX    TMP DP  RH WIND       PRES   REMARKS
WASHINGTON NAT LGT RAIN  55  51  86 SW3       29.89F FOG
DULLES         CLOUDY    54  51  90 S8        29.88F
ANDREWS AFB    TSTM      55  55 100 S8        29.86  FOG
FT BELVOIR     LGT RAIN  52  48  87 VRB1      29.90S FOG
QUANTICO       LGT RAIN  50  48  93 SE3       29.91S FOG
COLLEGE PARK*  CLOUDY    54  52  94 CALM      29.87F
LEESBURG*      CLOUDY    57  55  94 S8        29.87F THUNDER
GAITHERSBURG*  CLOUDY    55  50  82 SW7       29.91F

$$

MDZ006>007-011-014-261600-
BALTIMORE METRO

CITY           SKY/WX    TMP DP  RH WIND       PRES   REMARKS
BWI AIRPORT    LGT RAIN  55  51  86 S3        29.87F
MD SCIENCE CTR   N/A     54  47  77 MISG      29.91F
MARTIN STATE   CLOUDY    50  48  93 SE3       29.89F
ANNAPOLIS      LGT RAIN  45  42  89 SE7       29.88F FOG

$$

MDZ012-015-019>023-261600-
MARYLAND EASTERN SHORE

CITY           SKY/WX    TMP DP  RH WIND       PRES   REMARKS
OCEAN CITY     CLOUDY    52  50  93 S8        29.96F
SALISBURY      CLOUDY   N/A N/A N/A S16       29.92F
BAY BRIDGE AP*   N/A     54  54 100 S5        29.88F
CAMBRIDGE*     CLOUDY    61  59  94 S14G21    29.90F
EASTON*        CLOUDY    61  61 100 SW10      29.94S

$$

MDZ017>025-261600-
SOUTHERN MARYLAND

CITY           SKY/WX    TMP DP  RH WIND       PRES   REMARKS
PATUXENT RIVER PTSUNNY   65  59  81 S14G23    29.89F HAZE
ST INIGOES     PTSUNNY   63  58  83 S8        29.89F
LEONARDTOWN*   CLOUDY    63  59  88 S8G23     29.90F

$$

MDZ003>005-261600-
NORTH CENTRAL MARYLAND

CITY           SKY/WX    TMP DP  RH WIND       PRES   REMARKS
FREDERICK*     LGT RAIN  54  46  76 VRB5      29.88F
HAGERSTOWN APT CLOUDY    49  40  71 CALM      29.84F
WESTMINSTER*   TSTM      55  52  88 S7        29.86F

$$

MDZ501>502-261600-
WESTERN MARYLAND

CITY           SKY/WX    TMP DP  RH WIND       PRES   REMARKS
OAKLAND*       PTSUNNY   63  52  67 SW13G23   29.78F
CUMBERLAND*    PTSUNNY   52  41  66 CALM      29.83F

$$

VAZ025>031-261600-
SHENANDOAH VALLEY

CITY           SKY/WX    TMP DP  RH WIND       PRES   REMARKS
WINCHESTER*    PTSUNNY   63  48  59 SW5       29.82F THUNDER
FRONT ROYAL*   FAIR      64  54  68 S8        29.81F
LURAY*         FAIR      70  59  68 S13       29.83F THUNDER
NEW MARKET*    FAIR      65  55  70 SW14G20   29.81F
STAUNTON*      MOSUNNY   67  55  64 S17       29.86F
WAYNESBORO*    FAIR      66  55  67 SW8       29.86F

$$

WVZ021-048>050-054>055-261600-
EASTERN WEST VIRGINIA PANHANDLE

CITY           SKY/WX    TMP DP  RH WIND       PRES   REMARKS
MARTINSBURG    PTSUNNY   49  39  68 NW3       29.83F
PETERSBURG*    MOSUNNY   71  48  44 S10G20    29.77F

$$

VAZ036>039-050-261600-
CENTRAL FOOTHILLS

CITY           SKY/WX    TMP DP  RH WIND       PRES   REMARKS
CHARLOTTESVILL CLOUDY    56  53  90 S8        29.87F
CULPEPER*      CLOUDY    57  55  94 S6        29.89F THUNDER
ORANGE*        CLOUDY    55  54  94 SE5       29.90F THUNDER FOG
GORDONSVILLE*  CLOUDY    54  53  95 SW8       29.89F
WARRENTON*     CLOUDY    56  56 100 S5        29.88F THUNDER

$$

VAZ055>057-261600-
NORTH AND CENTRAL PIEDMONT

CITY           SKY/WX    TMP DP  RH WIND       PRES   REMARKS
FREDERICKSBRG* DRIZZLE   54  54 100 CALM      29.90S
STAFFORD*      TSTM      51  32  47 S3        29.94F

$$

NCZ024-NYZ072-PAZ021-071-VAZ022-071-261600-
OTHER REGIONAL OBSERVATIONS

CITY           SKY/WX    TMP DP  RH WIND       PRES   REMARKS
NEW YORK CITY  CLOUDY    49  44  83 W5        29.94F HAZE
PHILADELPHIA   HVY RAIN  51  47  86 SW3       29.92R VSB 3/4
PITTSBURGH     DRIZZLE   45  43  93 NW8       29.77F FOG
ROANOKE        MOSUNNY   58  50  75 E5        29.90F
RICHMOND       CLOUDY    68  62  81 S15G22    29.91F
RALEIGH        CLOUDY    67  60  78 SW12      29.95F

$$

ANZ530>537-261600-
MARINE OBSERVATIONS

STATION/POSITION TIME  TEMP    WIND        PRES
                       AIR SEA DIR/SP/G
                 (UTC) (F)     (DEG/KT/KT) (MB)
THOMAS PT LIGHT  1500                        N/A
BALT KEY BRIDGE  1400   51     170/  3/  4 1013.0F
COVE POINT       1400   46     190/ 14/ 16 1013.0F
LEWISETTA        1400   49 45              1013.0F
SOLOMONS ISLAND  1400      41                N/A
PINEY POINT      1400          140/  9/ 10   N/A

$$




USA.gov is the U.S. government's official web portal to all federal, state and local government web resources and services.